Find Kosmos-2282

NORAD ID: 23168 Int'l Des: 1994-038 Owner: PVO Country: RU operational
HEOCIRCULARGSO

Live-Position

3D-Globus wird geladen...

Über Kosmos-2282

Beschreibung wird geladen...

Nächste Überflüge

Passes for default location (London). Set your location on the main map for personalized predictions.

Höhenverlauf

Loading altitude history...

Zweizeiliger Elementsatz

1 23168U 94038A 26104.41086345 .00000064 00000-0 00000+0 0 9997
2 23168 13.8806 353.1739 0005178 117.2200 66.3073 1.00256343116369
Epoch: 14. Apr. 2026 • Age: 20 hours

Aktueller Status

Höhe 35768.0 km
Geschwindigkeit 3.08 km/s
Subsatellitenpunkt 12.15°N, 173.12°W
Startdatum 6. Juli 1994
Alter 31.7 years
Typ other

Technische Details

Klassifizierung Payload
Masse 2200.00 kg
Trockenmasse 2100.00 kg
Gesamtmasse 2200.00 kg
Länge 5.00 m
Durchmesser 2.00 m
Spannweite 10.00 m
Form Step Cyl + 2 Pan
Hersteller NPOL/KOMET
Bus-Typ Prognoz
Phasenstatus In Orbit
Besitzer/Staat PVO/RU

Most Searched